Location: Huntsville
(41.2590°N, 111.7678°W)
Time: 20:49:02
(UTC+00:00)

Explorer 7 - Pass Details

Date: 15 June 2021
Orbit: 484 x 676 km, 50.3° (Epoch: 30 July)

Event Time Altitude Azimuth Distance (km) Brightness Sun altitude
Rises 10:56:33 0° 303° (WNW) 2,912 10.4 -9.3°
Reaches altitude 10° 10:59:02 10° 310° (NW) 1,971 9.6 -9.0°
Maximum altitude 11:03:21 44° 23° (NNE) 813 8.2 -8.4°
Drops below altitude 10° 11:07:24 10° 96° (E) 1,845 10.2 -7.8°
Sets 11:09:39 0° 103° (ESE) 2,704 10.9 -7.5°
